Location: Columbia
(38.9520°N, 92.3340°W)
Time: 18:57:57
(UTC-05:00)

Cosmos 2219 Rocket - Visible Passes

Search period start: 21 October 2014 00:00
Search period end: 31 October 2014 00:00
Orbit: 827 x 848 km, 71.0° (Epoch: 21 October)

Date Brightness Start Highest point End Pass type
(mag) Time Alt. Az. Time Alt. Az. Time Alt. Az.
21 Oct 4.8 04:28:43 10° NNE 04:32:18 17° NE 04:35:52 10° E visible
21 Oct 2.1 06:11:12 10° NNW 06:16:53 75° WSW 06:22:32 10° SSE visible
21 Oct 2.7 19:17:04 10° SSE 19:22:06 36° ESE 19:27:11 10° NE visible
21 Oct 3.8 21:01:07 10° WSW 21:06:03 31° WNW 21:10:58 10° N visible
22 Oct 4.8 04:12:38 10° NNE 04:15:59 16° NE 04:19:18 10° E visible
22 Oct 2.1 05:54:56 10° NNW 06:00:39 81° WSW 06:06:18 10° SSE visible
22 Oct 2.8 19:00:57 10° SSE 19:05:53 33° ESE 19:10:51 10° NE visible
22 Oct 3.7 20:44:44 10° WSW 20:49:45 33° WNW 20:54:50 10° N visible
23 Oct 4.8 03:56:35 10° NNE 03:59:39 15° NE 04:02:43 10° E visible
23 Oct 2.1 05:38:41 10° NNW 05:44:23 87° WSW 05:50:03 10° SSE visible
23 Oct 3.0 18:44:50 10° SSE 18:49:39 30° ESE 18:54:30 10° NE visible
23 Oct 3.6 20:28:21 10° SW 20:33:28 36° WNW 20:38:39 10° N visible
24 Oct 4.9 03:42:12 13° NE 03:43:20 14° NE 03:46:05 10° ENE visible
24 Oct 2.1 05:24:04 20° NNW 05:28:08 87° ENE 05:33:48 10° SSE visible
24 Oct 3.5 20:11:59 10° SW 20:17:11 38° WNW 20:22:27 10° N visible
25 Oct 5.0 03:28:23 12° ENE 03:28:23 12° ENE 03:29:25 10° ENE visible
25 Oct 2.2 05:10:16 49° NNW 05:11:53 81° ENE 05:17:33 10° SSE visible
25 Oct 3.9 06:52:50 10° WNW 06:55:01 12° W 06:57:12 10° WSW visible
25 Oct 3.4 19:55:37 10° SW 20:00:54 41° WNW 20:06:14 10° N visible
26 Oct 2.4 04:56:25 64° ESE 04:56:25 64° ESE 05:01:16 10° SSE visible
26 Oct 3.7 06:38:18 13° W 06:38:49 14° W 06:41:28 10° SW visible
26 Oct 3.3 19:39:16 10° SW 19:44:37 44° WNW 19:50:01 10° N visible
27 Oct 3.7 04:42:30 27° SE 04:42:30 27° SE 04:44:59 10° SSE visible
27 Oct 3.9 06:24:21 13° WSW 06:24:21 13° WSW 06:25:39 10° SW visible
27 Oct 3.2 19:22:56 10° SW 19:28:20 48° WNW 19:33:48 10° NNE visible
28 Oct 4.7 04:28:25 11° SSE 04:28:25 11° SSE 04:28:42 10° SSE visible
28 Oct 3.1 19:06:36 10° SW 19:12:03 52° WNW 19:17:35 10° NNE visible
29 Oct 2.9 18:50:17 10° SW 18:55:47 56° WNW 19:01:21 10° NNE visible
30 Oct 2.8 18:33:58 10° SW 18:39:31 60° WNW 18:45:07 10° NNE visible
